NOAA NWS Hourly Roundups by Site

Regional Weather Roundup for Jackson, KY

To Select Another Site Choose from List

Select Site:  

000
ASUS43 KJKL 200610
RWRJKL

EAST KENTUCKY HOURLY WEATHER ROUNDUP
NATIONAL WEATHER SERVICE JACKSON KY
200 AM EDT TUE APR 20 2021

NOTE: "FAIR" INDICATES FEW OR NO CLOUDS BELOW 12,000 FEET WITH
NO SIGNIFICANT WEATHER AND/OR OBSTRUCTIONS TO VISIBILITY.

* THESE REPORTS ARE NOT UNDER NWS QUALITY CONTROL AND MAY NOT
  REPORT WEATHER SUCH AS PRECIPITATION AND FOG.

KYZ079-080-083-085-087-088-110-112-115-119-120-200700
...EASTERN KENTUCKY...

CITY           SKY/WX    TMP DP  RH WIND       PRES   REMARKS
JACKSON        CLEAR     54  35  48 W3        29.98F
6HR MIN TEMP:  53; 6HR MAX TEMP:  62;

LONDON         CLEAR     43  39  86 CALM      30.00S
6HR MIN TEMP:  43; 6HR MAX TEMP:  61;

SOMERSET*      CLEAR     41  36  81 CALM      30.01F
MONTICELLO*    CLEAR     39  39 100 W9        30.02S WCI  33
6HR MIN TEMP:  39; 6HR MAX TEMP:  61;

WILLIAMSBURG*    N/A     45  39  81 CALM      30.01S
MIDDLESBORO*   CLEAR     40  39  95 CALM      30.02S
6HR MIN TEMP:  40; 6HR MAX TEMP:  60;

HARLAN APT*    CLEAR     43  38  83 CALM      30.02S
PIKE CO APT*     N/A     53  34  48 CALM      29.99S
BIG SANDY APT* CLEAR     53  35  49 SW5       29.99R
6HR MIN TEMP:  53; 6HR MAX TEMP:  62;

MOREHEAD APT*  PTCLDY    52  37  58 S6G12     29.98F
ASHLAND*       CLEAR     44  42  93 CALM      29.97R
$$

KYZ035-036-041-042-044-050-067-078-099-200700
...CENTRAL KENTUCKY...

CITY           SKY/WX    TMP DP  RH WIND       PRES   REMARKS
MT STERLING*   CLEAR     50  37  62 SW6       29.99S
FLEMING/MASON* CLEAR     49  37  62 SW7       29.97S
DANVILLE*      CLEAR     43  37  81 SW5       29.99S
RICHMOND*        N/A     54  39  58 S7        29.98S
LEXINGTON      CLEAR     49  37  63 S7        29.97S
6HR MIN TEMP:  49; 6HR MAX TEMP:  60;

FRANKFORT      CLEAR     48  38  68 SW6       29.96R
6HR MIN TEMP:  46; 6HR MAX TEMP:  62;

LOUISVILLE     PTCLDY    54  40  59 CALM      29.96R
6HR MIN TEMP:  54; 6HR MAX TEMP:  66;

LEBANON*         N/A     50  39  66 CALM      29.98S
GLASGOW*       CLEAR     44  42  93 CALM      29.99S
BOWLING GREEN  CLEAR     47  40  76 CALM      29.99S
6HR MIN TEMP:  47; 6HR MAX TEMP:  65;

$$

KYZ091>093-OHZ055-061-077-WVZ005-015-034-035-042-200700
...SOUTHERN OHIO/WEST VIRGINIA...

CITY           SKY/WX    TMP DP  RH WIND       PRES   REMARKS
COVINGTON      MOCLDY    46  39  76 N10       29.98R
COLUMBUS       MOCLDY    47  38  71 NW9       29.95R
DAYTON         MOCLDY    43  34  70 NW8       29.98S
WILMINGTON     CLEAR     44  38  79 N5        29.97R
CHARLESTON     CLEAR     46  38  73 CALM      29.96S
BLUEFIELD      CLEAR     47  29  49 W6        30.00F
LOGAN CO APT*    N/A     50  36  57 S3        29.99R
$$

VAZ002-007-008-TNZ017-027-036-066-071-200700
...SOUTHWEST VIRGINIA/EAST TENNESSEE...

CITY           SKY/WX    TMP DP  RH WIND       PRES   REMARKS
WISE*          CLEAR     45  32  61 S3        30.03S
JONESVILLE*      N/A     39  37  93 CALM      30.02F
ABINGDON*      CLEAR     41  33  72 CALM      30.02S
BRISTOL        CLEAR     43  38  82 CALM      30.02R
MORRISTOWN*    CLEAR     46  41  81 CALM      29.99S
SEVIERVILLE*   CLEAR     43  41  93 CALM      30.00S
KNOXVILLE      PTCLDY    49  42  77 CALM      29.99S
LAFOLLETTE*    CLEAR     41  39  93 CALM      30.04R
OAK RIDGE      CLEAR     46  42  86 CALM      30.02R
CROSSVILLE     PTCLDY    41  40  96 CALM      30.02S
NASHVILLE      CLEAR     49  41  74 CALM      30.00S
$$

...KEY TO REMARKS...
VSB - VISIBILITY IN MILES
WCI - WIND CHILL INDEX
HX  - HEAT INDEX

$$


 

View Past Reports for Jackson, KY.

Products Courtesy of NOAA-NWS
NWS Information Parsing Script by Ken True at Saratoga Weather - Script by SE Lincoln Weather.